Time,TemperatureF,DewpointF,PressureIn,WindDirection,WindDirectionDegrees,WindSpeedMPH,WindSpeedGustMPH,Humidity,HourlyPrecipIn,Conditions,Clouds,dailyrainin,SoftwareType,DateUTC
2017-03-29 00:00:00,29.7,28.7,30.06,SSE,153,0.0,0.0,96,0.00,,,0.30,Wunderground v.1.15,2017-03-29 04:00:00,
2017-03-29 00:10:00,29.7,28.7,30.06,SSE,153,0.0,0.0,96,0.00,,,0.30,Wunderground v.1.15,2017-03-29 04:10:00,
2017-03-29 00:20:00,29.7,28.7,30.05,SSE,153,0.0,0.0,96,0.00,,,0.30,Wunderground v.1.15,2017-03-29 04:20:00,
2017-03-29 00:30:00,29.7,28.7,30.06,SSE,153,0.0,0.0,96,0.00,,,0.30,Wunderground v.1.15,2017-03-29 04:30:00,
2017-03-29 00:40:00,29.8,28.8,30.06,SSE,153,0.0,0.0,96,0.00,,,0.30,Wunderground v.1.15,2017-03-29 04:40:00,
2017-03-29 00:50:00,30.0,29.0,30.07,SSE,153,0.0,0.0,96,0.00,,,0.30,Wunderground v.1.15,2017-03-29 04:50:00,
2017-03-29 01:00:00,29.9,28.9,30.07,SSE,153,0.0,0.0,96,0.00,,,0.30,Wunderground v.1.15,2017-03-29 05:00:00,
2017-03-29 01:10:00,29.8,28.8,30.06,SSE,153,0.0,0.0,96,0.00,,,0.00,Wunderground v.1.15,2017-03-29 05:10:00,
2017-03-29 01:20:00,29.4,28.4,30.06,ESE,103,0.0,0.0,96,0.00,,,0.00,Wunderground v.1.15,2017-03-29 05:20:00,
2017-03-29 01:30:00,28.7,27.4,30.06,East,86,0.0,0.0,95,0.00,,,0.00,Wunderground v.1.15,2017-03-29 05:30:00,
2017-03-29 01:40:00,28.4,27.2,30.06,East,86,0.0,0.0,95,0.00,,,0.00,Wunderground v.1.15,2017-03-29 05:40:00,
2017-03-29 01:50:00,28.3,27.1,30.07,East,86,0.0,0.0,95,0.00,,,0.00,Wunderground v.1.15,2017-03-29 05:50:00,
2017-03-29 02:00:00,28.2,27.0,30.07,East,86,0.0,0.0,95,0.00,,,0.00,Wunderground v.1.15,2017-03-29 06:00:00,
2017-03-29 02:10:00,28.1,26.9,30.07,East,86,0.0,0.0,95,0.00,,,0.00,Wunderground v.1.15,2017-03-29 06:10:00,
2017-03-29 02:20:00,28.1,26.9,30.07,East,86,0.0,0.0,95,0.00,,,0.00,Wunderground v.1.15,2017-03-29 06:20:00,
2017-03-29 02:30:00,28.0,26.8,30.07,East,86,0.0,0.0,95,0.00,,,0.00,Wunderground v.1.15,2017-03-29 06:30:00,
2017-03-29 02:40:00,27.8,26.6,30.06,East,86,0.0,0.0,95,0.00,,,0.00,Wunderground v.1.15,2017-03-29 06:40:00,
2017-03-29 02:50:00,27.7,26.5,30.07,East,86,0.0,0.0,95,0.00,,,0.00,Wunderground v.1.15,2017-03-29 06:50:00,
2017-03-29 03:00:00,27.5,26.3,30.07,East,86,0.0,0.0,95,0.00,,,0.00,Wunderground v.1.15,2017-03-29 07:00:00,
2017-03-29 03:10:00,27.4,26.2,30.07,East,86,0.0,0.0,95,0.00,,,0.00,Wunderground v.1.15,2017-03-29 07:10:00,
2017-03-29 03:20:00,27.3,26.1,30.07,East,86,0.0,0.0,95,0.00,,,0.00,Wunderground v.1.15,2017-03-29 07:20:00,
2017-03-29 03:30:00,27.3,26.1,30.07,East,86,0.0,0.0,95,0.00,,,0.00,Wunderground v.1.15,2017-03-29 07:30:00,
2017-03-29 03:40:00,27.2,26.0,30.07,East,86,0.0,0.0,95,0.00,,,0.00,Wunderground v.1.15,2017-03-29 07:40:00,
2017-03-29 03:50:00,27.2,26.0,30.07,East,86,0.0,0.0,95,0.00,,,0.00,Wunderground v.1.15,2017-03-29 07:50:00,
2017-03-29 04:00:00,27.2,26.0,30.07,East,86,0.0,0.0,95,0.00,,,0.00,Wunderground v.1.15,2017-03-29 08:00:00,
2017-03-29 04:10:00,27.2,26.0,30.07,East,86,0.0,0.0,95,0.00,,,0.00,Wunderground v.1.15,2017-03-29 08:10:00,
2017-03-29 04:20:00,27.2,26.0,30.07,East,86,0.0,0.0,95,0.00,,,0.00,Wunderground v.1.15,2017-03-29 08:20:00,
2017-03-29 04:30:00,27.2,26.0,30.07,East,86,0.0,0.0,95,0.00,,,0.00,Wunderground v.1.15,2017-03-29 08:30:00,
2017-03-29 04:40:00,27.1,25.9,30.07,East,86,0.0,0.0,95,0.00,,,0.00,Wunderground v.1.15,2017-03-29 08:40:00,
2017-03-29 04:50:00,27.1,25.9,30.07,East,86,0.0,0.0,95,0.00,,,0.00,Wunderground v.1.15,2017-03-29 08:50:00,
2017-03-29 05:00:00,27.1,25.9,30.07,East,86,0.0,0.0,95,0.00,,,0.00,Wunderground v.1.15,2017-03-29 09:00:00,
2017-03-29 05:10:00,27.1,25.9,30.07,East,86,0.0,0.0,95,0.00,,,0.00,Wunderground v.1.15,2017-03-29 09:10:00,
2017-03-29 05:20:00,27.1,25.9,30.07,East,86,0.0,0.0,95,0.00,,,0.00,Wunderground v.1.15,2017-03-29 09:20:00,
2017-03-29 05:30:00,27.1,25.9,30.07,East,86,0.0,0.0,95,0.00,,,0.00,Wunderground v.1.15,2017-03-29 09:30:00,
2017-03-29 05:40:00,27.1,25.9,30.07,East,86,0.0,0.0,95,0.00,,,0.00,Wunderground v.1.15,2017-03-29 09:40:00,
2017-03-29 05:50:00,27.1,25.9,30.07,East,86,0.0,0.0,95,0.00,,,0.00,Wunderground v.1.15,2017-03-29 09:50:00,
2017-03-29 06:00:00,27.1,25.9,30.08,East,86,0.0,0.0,95,0.00,,,0.00,Wunderground v.1.15,2017-03-29 10:00:00,
2017-03-29 06:10:00,27.1,25.9,30.08,East,86,0.0,0.0,95,0.00,,,0.00,Wunderground v.1.15,2017-03-29 10:10:00,
2017-03-29 06:20:00,27.1,25.9,30.08,East,86,0.0,0.0,95,0.00,,,0.00,Wunderground v.1.15,2017-03-29 10:20:00,
2017-03-29 06:30:00,27.1,25.9,30.08,East,86,0.0,0.0,95,0.00,,,0.00,Wunderground v.1.15,2017-03-29 10:30:00,
2017-03-29 06:40:00,27.1,25.9,30.08,East,86,0.0,0.0,95,0.00,,,0.00,Wunderground v.1.15,2017-03-29 10:40:00,
2017-03-29 06:50:00,27.1,25.9,30.08,East,86,0.0,0.0,95,0.00,,,0.00,Wunderground v.1.15,2017-03-29 10:50:00,
2017-03-29 07:00:00,27.2,26.0,30.08,East,86,0.0,0.0,95,0.00,,,0.00,Wunderground v.1.15,2017-03-29 11:00:00,
2017-03-29 07:10:00,27.3,26.1,30.08,East,86,0.0,0.0,95,0.00,,,0.00,Wunderground v.1.15,2017-03-29 11:10:00,
2017-03-29 07:20:00,27.4,26.2,30.08,East,86,0.0,0.0,95,0.00,,,0.00,Wunderground v.1.15,2017-03-29 11:20:00,
2017-03-29 07:30:00,27.5,26.3,30.08,East,86,0.0,0.0,95,0.00,,,0.00,Wunderground v.1.15,2017-03-29 11:30:00,
2017-03-29 07:40:00,27.5,26.3,30.08,East,86,0.0,0.0,95,0.00,,,0.00,Wunderground v.1.15,2017-03-29 11:40:00,
2017-03-29 07:50:00,27.6,26.4,30.08,East,86,0.0,0.0,95,0.00,,,0.00,Wunderground v.1.15,2017-03-29 11:50:00,
2017-03-29 08:00:00,27.8,26.6,30.07,East,86,0.0,0.0,95,0.00,,,0.00,Wunderground v.1.15,2017-03-29 12:00:00,
2017-03-29 08:10:00,28.0,26.8,30.08,East,86,0.0,0.0,95,0.00,,,0.00,Wunderground v.1.15,2017-03-29 12:10:00,
2017-03-29 08:20:00,28.1,26.9,30.07,East,86,0.0,0.0,95,0.00,,,0.00,Wunderground v.1.15,2017-03-29 12:20:00,
2017-03-29 08:30:00,28.3,27.1,30.07,East,86,0.0,0.0,95,0.00,,,0.00,Wunderground v.1.15,2017-03-29 12:30:00,
2017-03-29 08:40:00,28.5,27.3,30.07,East,86,0.0,0.0,95,0.00,,,0.00,Wunderground v.1.15,2017-03-29 12:40:00,
2017-03-29 08:50:00,28.7,27.4,30.07,East,86,0.0,0.0,95,0.00,,,0.00,Wunderground v.1.15,2017-03-29 12:50:00,
2017-03-29 09:00:00,28.8,27.3,30.06,East,86,0.0,0.0,94,0.00,,,0.00,Wunderground v.1.15,2017-03-29 13:00:00,
2017-03-29 09:10:00,28.9,27.4,30.07,East,86,0.0,0.0,94,0.00,,,0.00,Wunderground v.1.15,2017-03-29 13:10:00,
2017-03-29 09:20:00,29.0,27.5,30.07,East,86,0.0,0.0,94,0.00,,,0.00,Wunderground v.1.15,2017-03-29 13:20:00,
2017-03-29 09:30:00,29.1,27.6,30.07,East,86,0.0,0.0,94,0.00,,,0.00,Wunderground v.1.15,2017-03-29 13:30:00,
2017-03-29 09:40:00,29.2,27.4,30.07,East,86,0.0,0.0,93,0.00,,,0.00,Wunderground v.1.15,2017-03-29 13:40:00,
2017-03-29 09:50:00,29.2,27.4,30.07,East,86,0.0,0.0,93,0.00,,,0.00,Wunderground v.1.15,2017-03-29 13:50:00,
2017-03-29 10:00:00,29.3,27.5,30.07,East,86,0.0,0.0,93,0.00,,,0.00,Wunderground v.1.15,2017-03-29 14:00:00,
2017-03-29 10:10:00,29.4,27.6,30.07,East,86,0.0,0.0,93,0.00,,,0.01,Wunderground v.1.15,2017-03-29 14:10:00,
2017-03-29 10:20:00,29.4,27.4,30.07,East,86,0.0,0.0,92,0.00,,,0.01,Wunderground v.1.15,2017-03-29 14:20:00,
2017-03-29 10:30:00,29.3,27.3,30.06,East,86,0.0,0.0,92,0.00,,,0.01,Wunderground v.1.15,2017-03-29 14:30:00,
2017-03-29 10:40:00,29.3,27.5,30.07,East,86,0.0,0.0,93,0.00,,,0.01,Wunderground v.1.15,2017-03-29 14:40:00,
2017-03-29 10:50:00,29.6,27.8,30.06,East,86,0.0,0.0,93,0.00,,,0.01,Wunderground v.1.15,2017-03-29 14:50:00,
2017-03-29 11:00:00,29.8,27.8,30.06,East,86,0.0,0.0,92,0.00,,,0.01,Wunderground v.1.15,2017-03-29 15:00:00,
2017-03-29 11:10:00,30.2,28.2,30.06,East,86,0.0,0.0,92,0.00,,,0.01,Wunderground v.1.15,2017-03-29 15:10:00,
2017-03-29 11:20:00,30.5,28.2,30.06,East,86,0.0,0.0,91,0.00,,,0.02,Wunderground v.1.15,2017-03-29 15:20:00,
2017-03-29 11:30:00,30.5,28.2,30.06,East,86,0.0,0.0,91,0.00,,,0.02,Wunderground v.1.15,2017-03-29 15:30:00,
2017-03-29 11:40:00,30.6,28.0,30.06,East,86,0.0,0.0,90,0.00,,,0.03,Wunderground v.1.15,2017-03-29 15:40:00,
2017-03-29 11:50:00,31.0,28.7,30.06,East,86,0.0,1.0,91,0.05,,,0.04,Wunderground v.1.15,2017-03-29 15:50:00,
2017-03-29 12:00:00,32.3,29.7,30.06,East,86,0.0,0.0,90,0.05,,,0.04,Wunderground v.1.15,2017-03-29 16:00:00,
2017-03-29 12:10:00,33.3,30.1,30.06,East,86,0.0,0.0,88,0.09,,,0.06,Wunderground v.1.15,2017-03-29 16:10:00,
2017-03-29 12:20:00,32.9,29.5,30.06,East,86,0.0,0.0,87,0.07,,,0.07,Wunderground v.1.15,2017-03-29 16:20:00,
2017-03-29 12:30:00,32.9,29.7,30.06,East,86,0.0,0.0,88,0.09,,,0.08,Wunderground v.1.15,2017-03-29 16:30:00,
2017-03-29 12:40:00,32.8,29.6,30.06,East,86,0.0,0.0,88,0.06,,,0.09,Wunderground v.1.15,2017-03-29 16:40:00,
2017-03-29 12:50:00,32.6,29.4,30.06,East,86,0.0,2.0,88,0.04,,,0.10,Wunderground v.1.15,2017-03-29 16:50:00,
2017-03-29 13:00:00,32.5,29.3,30.06,East,86,0.0,2.0,88,0.06,,,0.11,Wunderground v.1.15,2017-03-29 17:00:00,
2017-03-29 13:10:00,32.9,29.7,30.05,East,80,0.0,4.0,88,0.10,,,0.12,Wunderground v.1.15,2017-03-29 17:10:00,
2017-03-29 13:20:00,32.5,29.1,30.06,NE,49,4.0,4.0,87,0.07,,,0.13,Wunderground v.1.15,2017-03-29 17:20:00,
2017-03-29 13:30:00,32.2,29.3,30.06,North,355,3.0,7.0,89,0.07,,,0.14,Wunderground v.1.15,2017-03-29 17:30:00,
2017-03-29 13:40:00,32.2,29.6,30.06,North,355,3.0,3.0,90,0.04,,,0.15,Wunderground v.1.15,2017-03-29 17:40:00,
2017-03-29 13:50:00,32.2,29.6,30.06,North,355,3.0,6.0,90,0.04,,,0.15,Wunderground v.1.15,2017-03-29 17:50:00,
2017-03-29 14:00:00,32.4,29.8,30.06,North,11,2.0,5.0,90,0.04,,,0.16,Wunderground v.1.15,2017-03-29 18:00:00,
2017-03-29 14:10:00,32.7,29.8,30.06,NNW,348,3.0,5.0,89,0.00,,,0.16,Wunderground v.1.15,2017-03-29 18:10:00,
2017-03-29 14:20:00,32.6,29.4,30.06,NNE,18,5.0,5.0,88,0.00,,,0.17,Wunderground v.1.15,2017-03-29 18:20:00,
2017-03-29 14:30:00,32.6,29.4,30.06,North,360,4.0,9.0,88,0.00,,,0.17,Wunderground v.1.15,2017-03-29 18:30:00,
2017-03-29 14:40:00,32.7,29.5,30.06,NNE,12,5.0,5.0,88,0.00,,,0.18,Wunderground v.1.15,2017-03-29 18:40:00,
2017-03-29 14:50:00,32.7,29.5,30.06,NNE,14,4.0,10.0,88,0.00,,,0.18,Wunderground v.1.15,2017-03-29 18:50:00,
2017-03-29 15:00:00,32.8,29.6,30.06,NNE,16,4.0,9.0,88,0.00,,,0.18,Wunderground v.1.15,2017-03-29 19:00:00,
2017-03-29 15:10:00,32.6,29.7,30.06,NNE,24,4.0,9.0,89,0.00,,,0.19,Wunderground v.1.15,2017-03-29 19:10:00,
2017-03-29 15:20:00,32.2,29.3,30.06,NE,49,6.0,6.0,89,0.00,,,0.19,Wunderground v.1.15,2017-03-29 19:20:00,
2017-03-29 15:30:00,32.4,29.5,30.06,NNE,13,4.0,10.0,89,0.00,,,0.19,Wunderground v.1.15,2017-03-29 19:30:00,
2017-03-29 15:40:00,32.4,29.5,30.06,North,360,5.0,5.0,89,0.00,,,0.20,Wunderground v.1.15,2017-03-29 19:40:00,
2017-03-29 15:50:00,32.5,29.6,30.06,North,360,5.0,5.0,89,0.00,,,0.20,Wunderground v.1.15,2017-03-29 19:50:00,
2017-03-29 16:00:00,32.8,29.9,30.06,NNE,17,4.0,10.0,89,0.00,,,0.20,Wunderground v.1.15,2017-03-29 20:00:00,
2017-03-29 16:10:00,32.9,29.7,30.06,NNW,336,5.0,5.0,88,0.00,,,0.20,Wunderground v.1.15,2017-03-29 20:10:00,
2017-03-29 16:20:00,32.9,30.0,30.06,North,355,4.0,10.0,89,0.00,,,0.20,Wunderground v.1.15,2017-03-29 20:20:00,
2017-03-29 16:30:00,32.7,29.8,30.06,North,5,5.0,5.0,89,0.00,,,0.20,Wunderground v.1.15,2017-03-29 20:30:00,
2017-03-29 16:40:00,32.8,29.9,30.06,NNE,14,4.0,10.0,89,0.00,,,0.21,Wunderground v.1.15,2017-03-29 20:40:00,
2017-03-29 16:50:00,32.8,29.6,30.06,NNW,331,6.0,11.0,88,0.00,,,0.21,Wunderground v.1.15,2017-03-29 20:50:00,
2017-03-29 17:00:00,32.4,29.2,30.06,North,350,8.0,10.0,88,0.00,,,0.21,Wunderground v.1.15,2017-03-29 21:00:00,
2017-03-29 17:10:00,32.2,29.3,30.06,North,10,8.0,10.0,89,0.00,,,0.21,Wunderground v.1.15,2017-03-29 21:10:00,
2017-03-29 17:20:00,31.9,29.3,30.06,North,5,6.0,6.0,90,0.00,,,0.21,Wunderground v.1.15,2017-03-29 21:20:00,
2017-03-29 17:30:00,32.1,29.5,30.06,NNW,333,4.0,4.0,90,0.00,,,0.21,Wunderground v.1.15,2017-03-29 21:30:00,
2017-03-29 17:40:00,32.1,29.2,30.06,NNW,335,5.0,13.0,89,0.00,,,0.21,Wunderground v.1.15,2017-03-29 21:40:00,
2017-03-29 17:50:00,32.0,29.1,30.06,NNW,327,5.0,5.0,89,0.00,,,0.21,Wunderground v.1.15,2017-03-29 21:50:00,
2017-03-29 18:00:00,31.9,29.0,30.07,NNW,330,4.0,9.0,89,0.00,,,0.21,Wunderground v.1.15,2017-03-29 22:00:00,
2017-03-29 18:10:00,31.7,28.8,30.07,NNW,338,5.0,9.0,89,0.00,,,0.21,Wunderground v.1.15,2017-03-29 22:10:00,
2017-03-29 18:20:00,31.5,28.6,30.07,NNW,340,4.0,4.0,89,0.00,,,0.21,Wunderground v.1.15,2017-03-29 22:20:00,
2017-03-29 18:30:00,31.4,28.5,30.07,NNW,340,2.0,10.0,89,0.00,,,0.21,Wunderground v.1.15,2017-03-29 22:30:00,
2017-03-29 18:40:00,31.3,28.4,30.07,NW,323,2.0,2.0,89,0.00,,,0.21,Wunderground v.1.15,2017-03-29 22:40:00,
2017-03-29 18:50:00,31.1,28.2,30.08,NW,326,1.0,1.0,89,0.00,,,0.21,Wunderground v.1.15,2017-03-29 22:50:00,
2017-03-29 19:00:00,31.0,28.1,30.08,NNW,327,1.0,1.0,89,0.00,,,0.21,Wunderground v.1.15,2017-03-29 23:00:00,
2017-03-29 19:10:00,30.9,28.3,30.08,NNW,327,1.0,1.0,90,0.00,,,0.21,Wunderground v.1.15,2017-03-29 23:10:00,
2017-03-29 19:20:00,30.7,28.1,30.08,NNW,327,0.0,5.0,90,0.00,,,0.21,Wunderground v.1.15,2017-03-29 23:20:00,
2017-03-29 19:30:00,30.6,28.0,30.09,NNW,327,2.0,2.0,90,0.00,,,0.21,Wunderground v.1.15,2017-03-29 23:30:00,
2017-03-29 19:40:00,30.5,27.6,30.09,NNW,327,2.0,4.0,89,0.00,,,0.21,Wunderground v.1.15,2017-03-29 23:40:00,
2017-03-29 19:50:00,30.4,27.3,30.09,NNW,338,2.0,2.0,88,0.00,,,0.21,Wunderground v.1.15,2017-03-29 23:50:00,
2017-03-29 20:00:00,30.2,27.1,30.10,NNW,336,1.0,1.0,88,0.00,,,0.21,Wunderground v.1.15,2017-03-30 00:00:00,
2017-03-29 20:10:00,30.1,27.0,30.10,NNW,336,1.0,1.0,88,0.00,,,0.21,Wunderground v.1.15,2017-03-30 00:10:00,
2017-03-29 20:20:00,29.9,26.8,30.10,NNW,336,0.0,5.0,88,0.00,,,0.21,Wunderground v.1.15,2017-03-30 00:20:00,
2017-03-29 20:30:00,29.7,26.6,30.11,NNW,336,0.0,3.0,88,0.00,,,0.21,Wunderground v.1.15,2017-03-30 00:30:00,
2017-03-29 20:40:00,29.7,26.6,30.11,NNW,331,2.0,2.0,88,0.00,,,0.21,Wunderground v.1.15,2017-03-30 00:40:00,
2017-03-29 20:50:00,29.7,26.6,30.11,NNW,330,1.0,1.0,88,0.00,,,0.21,Wunderground v.1.15,2017-03-30 00:50:00,
2017-03-29 21:00:00,29.4,26.3,30.11,NW,319,1.0,1.0,88,0.00,,,0.21,Wunderground v.1.15,2017-03-30 01:00:00,
2017-03-29 21:10:00,29.4,26.3,30.11,NW,321,1.0,1.0,88,0.00,,,0.21,Wunderground v.1.15,2017-03-30 01:10:00,
2017-03-29 21:20:00,29.2,26.1,30.11,NW,321,0.0,6.0,88,0.00,,,0.21,Wunderground v.1.15,2017-03-30 01:20:00,
2017-03-29 21:30:00,29.1,26.0,30.11,NW,321,1.0,1.0,88,0.00,,,0.21,Wunderground v.1.15,2017-03-30 01:30:00,
2017-03-29 21:40:00,29.1,26.0,30.12,NNW,333,2.0,2.0,88,0.00,,,0.21,Wunderground v.1.15,2017-03-30 01:40:00,
2017-03-29 21:50:00,29.0,25.9,30.12,NNW,333,1.0,4.0,88,0.00,,,0.21,Wunderground v.1.15,2017-03-30 01:50:00,
2017-03-29 22:00:00,29.0,26.2,30.12,NNW,333,1.0,1.0,89,0.00,,,0.21,Wunderground v.1.15,2017-03-30 02:00:00,